Regional Weather Roundup
Issued by NWS

Home | Current Version | Previous Version | Graphics & Text | Print | Product List | Glossary On
Versions: 1 2 3 4 5 6 7 8 9 10 11 12 13 14 15 16 17 18 19 20 21 22 23 24 25 26 27 28 29 30 31 32 33 34 35 36 37 38 39 40 41 42 43 44 45 46 47 48 49 50
000
ASUS43 KTOP 100059
RWRKS

WEATHER ROUNDUP FOR KANSAS
NATIONAL WEATHER SERVICE GOODLAND KS
700 PM CST FRI DEC 09 2016

NOTE:  "FAIR" INDICATES FEW OR NO CLOUDS BELOW 12,000 FEET WITH NO
SIGNIFICANT WEATHER AND/OR OBSTRUCTIONS TO VISIBILITY.

KSZ001>006-013>018-027>032-041>047-100200-
NORTHWEST KANSAS

CITY           SKY/WX    TMP DP  RH WIND       PRES   REMARKS
GOODLAND       CLOUDY    27  21  78 SE5       30.21R
HAYS           CLEAR     20  12  71 SE10      30.37S WCI   9
HILL CITY      CLEAR     23  13  65 SE7       30.32F
RUSSELL        CLEAR     21  12  68 SE10      30.38S WCI  10
$$

KSZ061>065-074>080-084>089-100200-
SOUTHWEST KANSAS

CITY           SKY/WX    TMP DP  RH WIND       PRES   REMARKS
DODGE CITY     CLOUDY    24  15  68 SE8       30.32R
ELKHART          N/A     25  12  58 SE9         N/A
GARDEN CITY    CLOUDY    28  19  69 SE12      30.25S WCI  18
GREAT BEND     CLEAR     21  12  68 SE8       30.40R
LIBERAL        CLOUDY    34  18  51 E12       30.24F WCI  25
$$

KSZ066>073-081>083-090>101-100200-
SOUTHEAST KANSAS

CITY           SKY/WX    TMP DP  RH WIND       PRES   REMARKS
CHANUTE        CLOUDY    29  13  51 SE6       30.52R
COFFEYVILLE    CLOUDY    30  16  56 CALM      30.53S
HUTCHINSON     CLOUDY    28  13  53 S9        30.45R
MEDICINE LODGE   N/A     23  11  60 SE6       30.42S
NEWTON         CLOUDY    26  13  57 S9        30.46S
PARSONS        CLOUDY    30  13  49 SE3       30.53R
WICHITA INTL   CLOUDY    28  13  53 S8        30.46S
WICHITA JABRA  CLOUDY    27  13  55 S9        30.46S
WINFIELD       CLOUDY    28  13  53 SE5       30.51R
$$

KSZ007>012-019>026-033>040-048>060-102>105-100200-
NORTHEAST KANSAS

CITY           SKY/WX    TMP DP  RH WIND       PRES   REMARKS
CONCORDIA      CLOUDY    25  16  68 SE6       30.45F
EMPORIA        CLOUDY    27  13  55 S8        30.49R
LAWRENCE       CLOUDY    26  17  68 E7        30.53S
MANHATTAN      CLOUDY    28  14  55 CALM      30.49S
OLATHE IND     CLOUDY    26  13  57 E7        30.52F
OLATHE EXE     CLOUDY    25  11  55 E8        30.52F
SALINA         CLOUDY    28  16  60 S6        30.47R
TOPEKA BILLARD CLOUDY    27  15  61 E5        30.53R
TOPEKA FORBES  CLOUDY    28  15  58 E6        30.51R
$$



USA.gov is the U.S. government's official web portal to all federal, state and local government web resources and services.